Regional Weather Roundup
Issued by NWS

Home | Current Version | Previous Version | Graphics & Text | Print | Product List | Glossary On
Versions: 1 2 3 4 5 6 7 8 9 10 11 12 13 14 15 16 17 18 19 20 21 22 23 24 25 26 27 28 29 30 31 32 33 34 35 36 37 38 39 40 41 42 43 44 45 46 47 48 49 50
000
ASUS45 KTFX 010604
RWRMT
MONTANA HOURLY WEATHER ROUNDUP
NATIONAL WEATHER SERVICE GREAT FALLS MT
1204 AM MDT FRI AUG 1 2014

NOTE: "FAIR" INDICATES FEW OR NO CLOUDS BELOW 12000 FEET WITH NO
SIGNIFICANT WEATHER AND/OR OBSTRUCTIONS TO VISIBILITY.

* THESE STATIONS ARE NOT UNDER NWS QUALITY CONTROL. THEY DO NOT
   REPORT WEATHER SUCH AS PRECIPITATION OR FOG.

MTZ001>007-043-010700-
WEST OF THE DIVIDE
CITY           SKY/WX    TMP DP  RH WIND       PRES   REMARKS
KALISPELL      PTCLDY    63  52  68 NW3       30.06R
MISSOULA       PTCLDY    72  41  33 NW6       30.09S
BUTTE          CLOUDY    63  43  48 CALM      30.28S
MULLAN PASS    MOCLDY    68  30  24 NW7       30.28S
* ESSEX        N/A      N/A N/A N/A N/A        N/A
* LINCOLN      N/A       55  52  90 N/A        N/A
* LOOKOUT PASS N/A       67  39  36 VRB2       N/A
* POLSON       N/A       70  37  30 SE1        N/A
* RONAN APT    PTCLDY    64  52  65 N/A        N/A
* SEELEY LAKE  N/A       58  44  60 E2         N/A
* THOMP F APT  PTCLDY    57  43  60 N7G14      N/A
$$

MTZ008-052>055-010700-
SOUTHWEST MONTANA
CITY           SKY/WX    TMP DP  RH WIND       PRES   REMARKS
BOZEMAN        MOCLDY    63  45  52 S5        30.19R
DILLON         MOCLDY    63  43  48 SE7       30.24S
W YELLOWSTONE  CLOUDY    52  43  72 CALM      30.35F
* THREE FORKS  MOCLDY    61  48  62 N/A        N/A
* BOULDER HILL N/A       63  36  37 N/A        N/A
* MONIDA PASS  N/A       54  44  69 VRB1       N/A
* RAYNOLDS PAS N/A       54  35  49 SE3        N/A
* WHITEHALL    N/A       71  39  31 NW3G8      N/A
* WISE RIVER   N/A       70  38  31 W7G22      N/A
$$

MTZ009>010-012-014-046-048-049-054-010700-
EAST SLOPES AND CENTRAL MONTANA
CITY           SKY/WX    TMP DP  RH WIND       PRES   REMARKS
CUT BANK       CLEAR     61  48  62 N3        30.14S
GREAT FALLS    PTCLDY    68  43  40 S6        30.13S
HELENA         MOCLDY    70  43  38 S3        30.16S
MALMSTROM AFB  PTCLDY    70  41  35 VRB3      30.13S
* CONRAD       CLEAR     55  52  90 N/A        N/A
* EAST GLACIER N/A       58  50  75 N8         N/A
* MONARCH      N/A       59  41  51 N/A        N/A
* PENDROY      N/A       65  49  56 N1         N/A
* SAINT MARY   N/A       53  51  93 SE3        N/A
* SWEET GRASS  N/A       72  56  57 N4         N/A
$$

MTZ011-013-016-021-035-040-045-047-050-051-010700-
NORTH CENTRAL MONTANA
CITY           SKY/WX    TMP DP  RH WIND       PRES   REMARKS
HAVRE          CLEAR     64  50  61 E5        30.04S
LEWISTOWN      PTCLDY    68  45  44 SE6       30.16F
* CHESTER      N/A       66  46  49 NE2        N/A
* DENTON       N/A       66  44  45 SW7        N/A
* JUDITH GAP   N/A       64  46  52 NE4        N/A
* LOMA         N/A       75  43  32 N/A        N/A
$$

MTZ017>020-022>027-061-062-010700-
NORTHEAST MONTANA
CITY           SKY/WX    TMP DP  RH WIND       PRES   REMARKS
GLASGOW        CLOUDY    75  48  39 NW6       30.00S
GLENDIVE       MOCLDY    72  46  40 SW8       30.02F
JORDAN         PTCLDY    79  43  28 VRB6      30.00S
SIDNEY         PTCLDY    68  55  63 N6        30.03S
WOLF POINT     CLOUDY    72  55  55 NE8       30.00S
* BEAVER HILL  N/A       69  55  61 SE14       N/A
* CIRCLE       N/A       77  43  30 NW1        N/A
* LINDSAY DVD  N/A       67  44  44 NW1        N/A
* NAVAJO       N/A       65  58  78 E3         N/A
$$

MTZ028>042-056>058-010700-
SOUTHCENTRAL AND SOUTHEAST MONTANA
CITY           SKY/WX    TMP DP  RH WIND       PRES   REMARKS
BAKER          MOCLDY    63  48  58 NE5       30.06R
BILLINGS       PTCLDY    72  39  30 N3        30.11R
LIVINGSTON     MOCLDY    73  41  32 VRB5      30.19S
MILES CITY     PTCLDY    75  36  24 S12       30.03R
* LAUREL APT   PTCLDY    73  39  29 N/A        N/A
* ROUNDUP APT  MOCLDY    77  39  26 N/A        N/A
* ALZADA       N/A       67  46  47 E4         N/A
* LAME DEER    N/A       75  35  23 SE4        N/A
* REED POINT   N/A       76  45  33 SW6        N/A
* ROSCOE HILL  N/A       68  38  33 W5         N/A
$$

REGIONAL REPORTS...DAKOTAS
CITY           SKY/WX    TMP DP  RH WIND       PRES   REMARKS
WILLISTON      CLEAR     70  59  68 CALM      30.05R
DICKINSON      CLEAR     61  55  81 E8        30.05S
CROSBY         N/A       59  59 100 CALM      30.07R
TIOGA          CLEAR     55  55 100 E6        30.10S
WATFORD CITY   CLEAR     64  57  78 E9        30.03R
BISMARCK       CLEAR     64  57  78 NE7       30.05S
GRAND FORKS    CLEAR     63  61  93 CALM      30.01S
FARGO          CLEAR     66  61  84 S5        30.01S
BUFFALO SD     PTCLDY    64  48  56 S8        30.02S
RAPID CITY     PTCLDY    61  52  72 NW7       30.12F
$$

REGIONAL REPORTS...WYOMING/IDAHO/WASHINGTON
CITY           SKY/WX    TMP DP  RH WIND       PRES   REMARKS
GILLETTE       PTCLDY    66  45  47 S12       30.17R
SHERIDAN       PTCLDY    61  43  52 S6        30.12R
CODY           PTCLDY    66  39  37 SW6       30.21F
YELLOWSTONE LA MOCLDY    50  45  83 NW3       30.44F
SALMON         CLOUDY    73  46  38 S7        30.15R
MULLAN PASS    MOCLDY    68  30  24 NW7       30.28S
SAND POINT     PTCLDY    63  50  63 W5        30.00S
SPOKANE        MOCLDY    81  30  16 SW9       30.01S
$$

REGIONAL REPORTS...SASKATCHEWAN
CITY           SKY/WX    TMP DP  RH WIND       PRES   REMARKS
SWIFT CURRENT  CLOUDY    64  55  73 S20       30.08F

$$




USA.gov is the U.S. government's official web portal to all federal, state and local government web resources and services.